Weather Service Report


866 
ASCA44 KEWX 010320
RWRMX 

LATIN AMERICA AND CARIBBEAN REGIONAL WEATHER ROUNDUP
NATIONAL WEATHER SERVICE AUSTIN/SAN ANTONIO TX
900 PM CST SAT FEB 28 2015

NOTE: "FAIR" INDICATED FEW OR NO CLOUDS BELOW 12,000 FEET WITH NO
SIGNIFICANT WEATHER AND/OR OBSTRUCTIONS TO VISIBILITY.

BAJA CALIFORNIA
  
CITY           SKY/WX    TMP DP  RH WIND       PRES   REMARKS
LORETO           N/A    N/A N/A N/A MISG        N/A                   
LA PAZ         MOCLDY    68  52  56 S9        29.98                   
MEXICALI       PTCLDY    66  37  34 W16       29.83                   
S.J. DEL CABO  MOCLDY    68  55  64 NW3       29.94R                  
TIJUANA        MOCLDY    57  45  62 S6        29.92R                  

NORTHWESTERN MEXICO
  
CITY           SKY/WX    TMP DP  RH WIND       PRES   REMARKS
CULIACAN       MOCLDY    70  64  83 CALM      29.95                   
DURANGO        PTCLDY    61  10  13 S6        30.19R                  
GUAYMAS          N/A    N/A N/A N/A MISG        N/A                   
HERMOSILLO     CLEAR     70  57  64 S5        29.96                   
CD. JUAREZ     CLEAR     66  36  32 W16       29.88                   
LOS MOCHIS     MOCLDY    70  59  68 SW7       29.95R                  
OBREGON        PTCLDY    64  57  77 CALM      29.92                   

NORTHEASTERN MEXICO
  
CITY           SKY/WX    TMP DP  RH WIND       PRES   REMARKS
CHIHUAHUA      PTCLDY    70  21  16 SW14      30.01                   
MATAMOROS        N/A    N/A N/A N/A MISG        N/A                   
MONTERREY      CLOUDY    48  45  87 S7        30.15R WCI  45          
REYNOSA        DRZL/FOG  46  45  93 NW7       30.17  VSB 1   WCI  43  
SALTILLO       PTCLDY    57  45  62 N7        30.13S                  
TORREON        PTCLDY    70  41  35 CALM      30.00R                  
CD. VICTORIA   CLOUDY    59  48  67 NW8       30.12                   

WESTERN MEXICO
  
CITY           SKY/WX    TMP DP  RH WIND       PRES   REMARKS
AGUASCALIENTES CLEAR     61  18  18 S6        30.21                   
DEL BAJIO      MOCLDY    70  32  24 CALM      30.25R                  
GUADALAJARA    CLEAR     72  21  15 N5        30.15                   
MANZANILLO     PTCLDY    72  61  68 NE6       29.91R                  
MAZATLAN       CLEAR     61  55  82 SW3       29.96R                  
P. VALLARTA    CLEAR     72  66  83 CALM      29.98R                  
ZACATECAS      CLEAR     57  10  15 S12       30.25R                  

CENTRAL MEXICO
  
CITY           SKY/WX    TMP DP  RH WIND       PRES   REMARKS
MEXICO CITY    CLEAR     66  37  34 S7        30.30R                  
MORELIA        CLEAR     63  37  39 SW8       30.20                   
POZA RICA      MOCLDY    64  63  94 E9        30.09S                  
PUEBLA         PTCLDY    57  37  47 S9        30.32R                  
QUERETARO        N/A     64  41  42 S3        30.27R                  
S. LUIS POTOSI PTCLDY    55  39  54 CALM      30.21R                  
TAMPICO        MOCLDY    64  61  88 NE9       30.11R                  
TOLUCA         CLEAR     54  34  47 W5        30.39R                  

SOUTHERN MEXICO
  
CITY           SKY/WX    TMP DP  RH WIND       PRES   REMARKS
ACAPULCO       CLEAR     77  73  88 W5        29.92R                  
OAXACA         CLEAR     70  48  46 S3        30.24R                  
VERACRUZ       MOCLDY    66  63  88 N6        30.10R                  
ZIHUATANEJO    CLEAR     77  68  73 CALM      29.94R                  

YUCATAN PENINSULA
  
CITY           SKY/WX    TMP DP  RH WIND       PRES   REMARKS
CAMPECHE       PTCLDY    77  75  94 NW12      30.05R                  
CANCUN         PTCLDY    77  73  88 E7        30.16R                  
CHETUMAL       CLEAR     79  72  78 CALM      30.09R                  
COZUMEL        PTCLDY    72  72 100 E6        30.14R                  
MERIDA         MOCLDY    82  70  65 E15       30.09R                  
TAPACHULA      MOCLDY    82  75  78 CALM      29.96R                  
TUX. GUTIERREZ CLEAR     72  61  68 NW7       30.05R                  
VILLAHERMOSA   PTCLDY    72  70  94 W3        30.07R                  

CENTRAL AMERICA
  
CITY           SKY/WX    TMP DP  RH WIND       PRES   REMARKS
MANAGUA        PTCLDY    84  64  51 E12       29.92S                  

CARIBBEAN
  
CITY           SKY/WX    TMP DP  RH WIND       PRES   REMARKS
ARUBA          PTCLDY    81  72  74 E16G28    29.97S                  
CURACAO        PTCLDY    81  72  74 E15       30.00S                  
KINGSTON       PTCLDY    81  70  69 SE16      30.06S                  
NASSAU         PTCLDY    77  73  88 E9        30.29R                  
SAN JUAN       PTCLDY    75  70  83 E8        30.14S                  
SANTO DOMINGO  PTCLDY    72  70  94 NE7       30.12R                  

$$


Return to Home page


Western Regional Climate Center, wrcc@dri.edu